TimeMST,TemperatureF,Dew PointF,Humidity,Sea Level PressureIn,VisibilityMPH,Wind Direction,Wind SpeedMPH,Gust SpeedMPH,PrecipitationIn,Events,Conditions,WindDirDegrees,DateUTC
12:07 AM,26.6,17.6,69,30.02,10.0,WNW,18.4,26.5,N/A,,Overcast,300,2013-01-02 07:07:00
12:12 AM,26.6,17.6,69,30.03,10.0,NW,18.4,25.3,N/A,,Overcast,310,2013-01-02 07:12:00
12:17 AM,26.6,17.6,69,30.03,8.0,WNW,20.7,28.8,0.00,Snow,Light Snow,300,2013-01-02 07:17:00
12:27 AM,26.6,19.4,74,30.02,2.5,WNW,23.0,33.4,0.00,Snow,Light Snow,300,2013-01-02 07:27:00
12:37 AM,24.8,19.4,80,30.02,4.0,WNW,24.2,31.1,0.00,Snow,Light Snow,300,2013-01-02 07:37:00
1:51 AM,25.0,19.0,78,30.12,9.0,WNW,19.6,26.5,0.00,Snow,Light Snow,290,2013-01-02 08:51:00
1:59 AM,24.8,19.4,80,30.03,3.0,WNW,20.7,27.6,0.00,Snow,Light Snow,300,2013-01-02 08:59:00
2:14 AM,24.8,19.4,80,30.03,4.0,WNW,18.4,26.5,0.00,Snow,Light Snow,300,2013-01-02 09:14:00
2:30 AM,24.8,19.4,80,30.03,10.0,WNW,17.3,27.6,0.00,,Overcast,300,2013-01-02 09:30:00
2:51 AM,25.0,19.0,78,30.14,10.0,WNW,19.6,26.5,0.00,,Overcast,300,2013-01-02 09:51:00
3:33 AM,24.8,17.6,74,30.04,10.0,WNW,17.3,-,N/A,,Overcast,300,2013-01-02 10:33:00
3:51 AM,25.0,18.0,75,30.14,10.0,WNW,19.6,26.5,N/A,,Overcast,300,2013-01-02 10:51:00
4:51 AM,25.0,17.1,72,30.15,10.0,WNW,16.1,24.2,N/A,,Overcast,300,2013-01-02 11:51:00
5:51 AM,24.1,17.1,75,30.14,10.0,WNW,15.0,-,0.00,Snow,Light Snow,290,2013-01-02 12:51:00
6:03 AM,24.8,17.6,74,30.04,1.8,WNW,13.8,-,0.00,Snow,Light Snow,290,2013-01-02 13:03:00
6:13 AM,24.8,17.6,74,30.04,3.0,West,10.4,20.7,0.00,Snow,Light Snow,280,2013-01-02 13:13:00
6:23 AM,23.0,17.6,80,30.03,8.0,WNW,12.7,-,0.00,Snow,Light Snow,290,2013-01-02 13:23:00
6:51 AM,21.9,15.1,75,30.14,10.0,WNW,15.0,-,0.00,,Partly Cloudy,290,2013-01-02 13:51:00
7:51 AM,21.9,14.0,72,30.15,10.0,WNW,13.8,-,0.00,Snow,Light Snow,290,2013-01-02 14:51:00
8:51 AM,21.9,12.9,68,30.16,9.0,WNW,18.4,26.5,0.00,Snow,Light Snow,290,2013-01-02 15:51:00
9:51 AM,21.0,12.9,71,30.18,7.0,WNW,23.0,27.6,0.00,Snow,Light Snow,300,2013-01-02 16:51:00
10:51 AM,21.0,12.9,71,30.21,9.0,WNW,17.3,28.8,0.00,Snow,Light Snow,300,2013-01-02 17:51:00
11:23 AM,21.2,14.0,74,30.10,8.0,WNW,19.6,27.6,0.00,Snow,Light Snow,300,2013-01-02 18:23:00
11:51 AM,21.0,15.1,78,30.21,8.0,NW,20.7,27.6,0.00,Snow,Light Snow,310,2013-01-02 18:51:00
1:51 PM,21.9,16.0,78,30.25,10.0,NW,17.3,-,0.00,,Overcast,320,2013-01-02 20:51:00
2:51 PM,21.9,16.0,78,30.27,10.0,NW,18.4,-,0.00,,Overcast,320,2013-01-02 21:51:00
4:39 PM,21.2,15.8,80,30.20,9.0,NW,18.4,-,0.00,Snow,Light Snow,320,2013-01-02 23:39:00
4:44 PM,21.2,15.8,80,30.21,9.0,NW,18.4,-,0.00,Snow,Light Snow,320,2013-01-02 23:44:00
4:51 PM,21.0,16.0,81,30.32,9.0,NW,16.1,-,0.00,Snow,Light Snow,320,2013-01-02 23:51:00
5:51 PM,21.0,15.1,78,30.34,6.0,NNW,18.4,25.3,0.00,Snow,Light Snow,330,2013-01-03 00:51:00
6:36 PM,19.4,15.8,86,30.24,9.0,NNW,11.5,-,0.00,Snow,Light Snow,330,2013-01-03 01:36:00
6:51 PM,19.9,14.0,78,30.37,9.0,NNW,11.5,20.7,0.00,Snow,Light Snow,340,2013-01-03 01:51:00
7:51 PM,19.0,12.9,77,30.38,10.0,NW,11.5,-,0.00,,Overcast,320,2013-01-03 02:51:00
8:07 PM,19.4,12.2,74,30.25,10.0,NW,11.5,-,N/A,,Overcast,320,2013-01-03 03:07:00
8:40 PM,19.4,12.2,74,30.25,10.0,NW,9.2,-,N/A,,Overcast,310,2013-01-03 03:40:00
8:51 PM,19.0,12.9,77,30.38,10.0,NW,9.2,-,N/A,,Overcast,320,2013-01-03 03:51:00
9:51 PM,19.0,12.9,77,30.39,10.0,NW,9.2,-,N/A,,Overcast,310,2013-01-03 04:51:00
10:51 PM,19.9,14.0,78,30.38,10.0,WNW,10.4,-,N/A,,Overcast,300,2013-01-03 05:51:00
11:51 PM,19.9,14.0,78,30.37,10.0,WNW,16.1,-,N/A,,Overcast,290,2013-01-03 06:51:00